W9KOZ-6 Weather Reports


time (UTC)temp
F
wind
direction
speed
knots
gust
knots
rain 1hr
in
rain 24hr
in
rain mn
in
humidity
%
barometer
mb
20260508023939 60 268 4.3 7.0 0.00 0.01 0.01 99 1026.8
20260508023412 61 277 3.5 7.0 0.00 0.01 0.01 99 1026.8
20260508022345 62 227 1.7 4.3 0.00 0.01 0.01 99 1026.7
20260508022009 61 275 3.5 5.2 0.00 0.01 0.01 99 1026.8
20260508015926 62 278 2.6 4.3 0.00 0.01 0.01 99 1026.8
20260508014924 63 223 2.6 4.3 0.00 0.01 0.01 99 1026.8
20260508013924 64 212 2.6 4.3 0.00 0.01 0.01 99 1026.9
20260508012924 64 256 3.5 7.0 0.00 0.01 0.01 99 1027.0
20260508011924 65 289 4.3 7.8 0.00 0.01 0.01 99 1027.3
20260508010920 64 236 1.7 3.5 0.00 0.01 0.01 99 1027.2
20260508005921 64 313 2.6 5.2 0.00 0.01 0.01 99 1027.0
20260508004920 65 318 3.5 7.8 0.00 0.01 0.01 99 1027.2
20260508003921 65 248 4.3 9.6 0.00 0.01 0.01 99 1027.3
20260508002921 65 290 6.1 9.6 0.00 0.01 0.01 99 1027.4
20260508001921 65 265 4.3 8.7 0.00 0.01 0.01 99 1027.3
20260508000921 65 282 6.1 13.0 0.00 0.01 0.01 99 1027.6
20260507235919 66 272 5.2 8.7 0.00 0.01 0.01 99 1027.5
20260507234919 65 271 5.2 11.3 0.00 0.01 0.01 99 1027.6
20260507233919 65 344 3.5 15.6 0.00 0.01 0.01 99 1027.4
20260507232918 65 290 3.5 15.6 0.00 0.01 0.01 99 1027.5
20260507232356 66 275 5.2 11.3 0.00 0.01 0.01 99 1028.0
20260507231400 66 300 6.1 13.0 0.00 0.01 0.01 99 1027.8
20260507225917 66 319 8.7 19.1 0.00 0.01 0.01 99 1027.8
20260507225351 66 281 7.8 16.5 0.00 0.01 0.01 99 1028.0
20260507223917 66 306 7.0 16.5 0.00 0.01 0.01 99 1028.1
20260507222917 66 307 10.4 19.1 0.00 0.01 0.01 99 1028.1
20260507221918 67 332 6.1 13.9 0.00 0.01 0.01 99 1028.4
20260507220915 66 295 6.1 17.4 0.00 0.01 0.01 99 1028.4
20260507215912 66 311 10.4 19.1 0.01 0.01 0.01 99 1028.2
20260507214912 66 310 7.0 16.5 0.01 0.01 0.01 99 1028.1
20260507213912 65 333 7.0 13.0 0.01 0.01 0.01 99 1027.9
20260507212912 65 275 8.7 18.2 0.01 0.01 0.01 99 1027.6
20260507211912 65 247 11.3 22.6 0.01 0.01 0.01 99 1028.2
20260507210910 65 291 10.4 19.1 0.00 0.01 0.00 99 1027.9
20260507205909 65 339 6.1 13.0 0.00 0.00 0.00 99 1028.4
20260507204909 64 269 6.1 14.8 0.00 0.00 0.00 99 1028.4
20260507203909 63 347 7.8 15.6 0.00 0.00 0.00 99 1028.2
20260507202911 62 273 5.2 11.3 0.00 0.00 0.00 99 1028.4
20260507202346 62 303 5.2 9.6 0.00 0.00 0.00 99 1028.4
20260507200907 62 324 5.2 10.4 0.00 0.00 0.00 99 1028.4
20260507200349 62 3 5.2 10.4 0.00 0.00 0.00 99 1028.0
20260507194908 62 293 6.1 12.2 0.00 0.00 0.00 99 1027.6
20260507193908 63 344 5.2 13.0 0.00 0.00 0.00 99 1027.9
20260507192908 62 331 6.1 14.8 0.00 0.00 0.00 99 1028.0
20260507191905 62 317 4.3 11.3 0.00 0.00 0.00 99 1028.2
20260507190905 62 68 6.1 11.3 0.00 0.00 0.00 99 1028.6
20260507185906 62 346 7.8 13.0 0.00 0.00 0.00 99 1028.2
20260507184906 63 278 6.1 12.2 0.00 0.00 0.00 99 1028.4
20260507183906 63 340 5.2 10.4 0.00 0.00 0.00 99 1028.5
20260507182906 62 318 5.2 9.6 0.00 0.00 0.00 99 1028.2
20260507181903 62 347 3.5 7.8 0.00 0.00 0.00 99 1028.5
20260507180900 63 349 3.5 9.6 0.00 0.00 0.00 99 1028.7
20260507175901 61 162 5.2 10.4 0.00 0.00 0.00 99 1028.7
20260507175335 61 47 5.2 8.7 0.00 0.00 0.00 99 1028.6
20260507174336 60 275 4.3 10.4 0.00 0.00 0.00 99 1028.5
20260507172858 60 275 4.3 11.3 0.00 0.00 0.00 99 1028.4
20260507171859 60 276 4.3 12.2 0.00 0.00 0.00 99 1028.2
20260507170858 58 274 4.3 8.7 0.00 0.00 0.00 99 1028.0
20260507165857 58 297 5.2 11.3 0.00 0.00 0.00 99 1028.0
20260507164853 58 269 7.8 12.2 0.00 0.00 0.00 99 1027.8
20260507163853 58 272 6.1 13.0 0.00 0.00 0.00 99 1027.6
20260507162852 58 317 3.5 7.8 0.00 0.00 0.00 99 1027.8
20260507161853 57 211 5.2 9.6 0.00 0.00 0.00 99 1027.6
20260507160850 57 237 5.2 8.7 0.00 0.00 0.00 99 1027.5
20260507155850 56 241 5.2 9.6 0.00 0.00 0.00 99 1027.4
20260507154851 56 278 6.1 10.4 0.00 0.00 0.00 99 1027.4
20260507153847 56 297 6.1 11.3 0.00 0.00 0.00 99 1027.5
20260507153332 55 301 5.2 11.3 0.00 0.00 0.00 99 1027.4
20260507151847 55 283 6.1 9.6 0.00 0.00 0.00 99 1027.2
20260507151321 55 315 2.6 6.1 0.00 0.00 0.00 99 1027.4
20260507145848 54 122 5.2 11.3 0.00 0.00 0.00 99 1027.2
20260507144848 53 131 4.3 7.8 0.00 0.00 0.00 99 1027.0
20260507143845 52 4 2.6 7.8 0.00 0.00 0.00 99 1026.9
20260507142836 50 82 3.5 9.6 0.00 0.00 0.00 99 1026.8
20260507141836 48 309 2.6 4.3 0.00 0.00 0.00 99 1026.4
20260507141316 45 310 3.5 8.7 0.00 0.00 0.00 99 1026.3
20260507135832 44 301 2.6 6.1 0.00 0.00 0.00 99 1025.9
20260507134832 42 67 3.5 5.2 0.00 0.00 0.00 99 1025.6
20260507134318 40 293 1.7 5.2 0.00 0.00 0.00 99 1025.2
20260507132831 39 310 1.7 3.5 0.00 0.00 0.00 99 1025.1
20260507131832 37 345 1.7 3.5 0.00 0.00 0.00 99 1025.0
20260507130831 36 359 2.6 9.6 0.00 0.00 0.00 99 1024.9
20260507125832 34 338 1.7 2.6 0.00 0.00 0.00 99 1024.7
20260507124816 33 297 1.7 3.5 0.00 0.00 0.00 99 1024.6
20260507123817 32 319 0.9 3.5 0.00 0.00 0.00 99 1024.5
20260507122816 31 305 0.9 2.6 0.00 0.00 0.00 99 1024.4
20260507121807 30 273 3.5 8.7 0.00 0.00 0.00 99 1024.4
20260507120808 29 297 1.7 6.1 0.00 0.00 0.00 99 1024.2
20260507120246 29 333 2.6 10.4 0.00 0.00 0.00 99 1024.2
20260507114806 29 340 1.7 9.6 0.00 0.00 0.00 99 1024.2
20260507114242 29 309 2.6 7.8 0.00 0.00 0.00 99 1024.2
20260507112801 29 332 3.5 11.3 0.00 0.00 0.00 99 1024.2
20260507112235 29 323 3.5 10.4 0.00 0.00 0.00 99 1024.2
20260507110801 29 325 3.5 11.3 0.00 0.00 0.00 99 1024.2
20260507105801 29 306 3.5 9.6 0.00 0.00 0.00 99 1024.2
20260507104800 29 311 3.5 10.4 0.00 0.00 0.00 99 1024.2
20260507103801 28 312 3.5 9.6 0.00 0.00 0.00 99 1024.2
20260507102801 29 272 2.6 7.0 0.00 0.00 0.00 99 1024.2
20260507101802 29 41 1.7 7.8 0.00 0.00 0.00 99 1024.2
20260507100751 28 300 3.5 11.3 0.00 0.00 0.00 99 1024.1
20260507095751 28 313 4.3 11.3 0.00 0.00 0.00 99 1024.2
20260507095232 28 311 2.6 5.2 0.00 0.00 0.00 99 1024.2
20260507093748 28 295 1.7 3.5 0.00 0.00 0.00 99 1024.1
20260507093223 28 281 1.7 7.0 0.00 0.00 0.00 99 1024.2
20260507091740 28 248 1.7 6.1 0.00 0.00 0.00 99 1024.2
20260507091214 29 166 1.7 3.5 0.00 0.00 0.00 99 1024.2
20260507090216 29 350 1.7 3.5 0.00 0.00 0.00 99 1024.2
20260507084734 29 0 1.7 7.0 0.00 0.00 0.00 99 1024.2
20260507084218 29 315 2.6 9.6 0.00 0.00 0.00 99 1024.4
20260507082734 29 316 1.7 9.6 0.00 0.00 0.00 99 1024.4
20260507081734 29 348 1.7 3.5 0.00 0.00 0.00 99 1024.2
20260507080734 29 354 2.6 5.2 0.00 0.00 0.00 99 1024.4
20260507075722 29 346 2.6 6.1 0.00 0.00 0.00 99 1024.4
20260507074720 29 4 2.6 6.1 0.00 0.00 0.00 99 1024.4
20260507073711 29 9 4.3 7.8 0.00 0.00 0.00 99 1024.5
20260507072711 29 345 4.3 7.0 0.00 0.00 0.00 99 1024.5
20260507071710 29 331 4.3 14.8 0.00 0.00 0.00 99 1024.5
20260507070705 30 287 2.6 12.2 0.00 0.00 0.00 99 1024.5
20260507065704 30 339 1.7 2.6 0.00 0.00 0.00 99 1024.5
20260507064704 30 321 0.9 3.5 0.00 0.00 0.00 99 1024.5
20260507063651 31 282 1.7 4.3 0.00 0.00 0.00 99 1024.5
20260507062635 31 307 2.6 4.3 0.00 0.00 0.00 99 1024.6
20260507061636 31 315 2.6 4.3 0.00 0.00 0.00 99 1024.6
20260507060624 31 328 2.6 5.2 0.00 0.00 0.00 99 1024.7
20260507055620 31 338 1.7 3.5 0.00 0.00 0.00 99 1024.7
20260507055057 31 342 1.7 3.5 0.00 0.00 0.00 99 1024.7
20260507053608 31 0 1.7 3.5 0.00 0.00 0.00 99 1024.7
20260507052607 31 0 1.7 2.6 0.00 0.00 0.00 99 1024.7
20260507051606 30 0 1.7 2.6 0.00 0.00 0.00 99 1024.5
20260507050606 31 0 1.7 3.5 0.00 0.00 0.00 99 1024.5
20260507045606 31 347 1.7 2.6 0.00 0.00 0.00 99 1024.4
20260507044605 31 333 0.9 1.7 0.00 0.00 0.00 99 1024.4
20260507044049 31 326 1.7 1.7 0.00 0.00 0.00 99 1024.4
20260507042552 31 331 1.7 2.6 0.00 0.00 0.00 99 1024.5
20260507042026 31 349 0.9 2.6 0.00 0.00 0.00 99 1024.4
20260507040554 32 355 0.9 2.6 0.00 0.00 0.00 99 1024.5
20260507035553 32 0 0.9 1.7 0.00 0.00 0.00 99 1024.4
20260507034553 32 339 0.9 1.7 0.00 0.00 0.00 99 1024.4
20260507033553 33 344 0.9 1.7 0.00 0.00 0.00 99 1024.4
20260507032554 33 322 0.9 2.6 0.00 0.00 0.00 99 1024.5
20260507031554 33 282 0.9 2.6 0.00 0.00 0.00 99 1024.5
20260507031028 33 178 0.9 2.6 0.00 0.00 0.00 99 1024.6
20260507025540 33 235 1.7 3.5 0.00 0.00 0.00 99 1024.6
20260507024526 34 190 2.6 7.0 0.00 0.00 0.00 99 1024.6